ONEWEB-0086 (45456 NORAD) Tracking and Keplerian Element Data

This shows tracking and keplerian element data for the satellite.

Feedback or suggestion? Click here.




ElementValue
Catalog45456
NameONEWEB-0086
Epoch Orbit175
Epoch Day184.91667824
Epoch Year2020
RAAN105.107
Inclination87.5682
Eccentricity0.0021642
Argument of Perigee291.225
Mean Anonmoly202.2252
Mean Motion14.89896292
Decay Rate-0.00059207
L11 45456U 20020AJ 20184.91667824 -.00059207 00000-0 -61932-2 0 9994
L22 45456 87.5682 105.1070 0021642 291.2250 202.2252 14.89896292 1758

Live tracking and technical data element details for ONEWEB-0086 (NORAD 45456). ONEWEB-0086 can be tracked NOW for your location showing map with azimuth and elevation plus other details from your city location.

Track the satellite on the map from your city or location and see movement details for azimuth, elevation, latitude, longitude, range, height, and movement on the map or in text.







IsCatalogInMostPopularTable: catalog: 45456, numindb: 31
Update: records affected: 1



GetName: 45456 ONEWEB-0086

Hit Count: updated at: Fri, 03 Jul 2020 16:16:30 GMT